Location: Darmstadt
(49.8706°N, 8.6494°E)
Time: 06:29:27
(UTC+01:00)

Cosmos 2369 - Pass Details

Date: 31 October 2020
Orbit: 841 x 854 km, 71.0° (Epoch: 03 December)

Event Time Altitude Azimuth Distance (km) Brightness Sun altitude
Rises 19:01:24 0° 208° (SSW) 3,409 7.2 -19.4°
Reaches altitude 10° 19:03:50 10° 208° (SSW) 2,476 6.5 -19.8°
Maximum altitude 19:09:32 87° 296° (WNW) 859 3.7 -20.7°
Enters shadow 19:14:33 14° 28° (NNE) 2,210 5.6 -21.5°
